Location: Lecco
(45.8566°N, 9.3977°E)
Time: 21:56:41
(UTC+02:00)

Vanguard 1 Rocket - Pass Details

Date: 22 August 2020
Orbit: 655 x 4221 km, 34.3° (Epoch: 30 September)

Event Time Altitude Azimuth Distance (km) Brightness Sun altitude
Exits shadow 01:17:52 12° 123° (ESE) 5,401 11.0 -32.4°
Drops below altitude 10° 01:19:46 10° 116° (ESE) 5,389 11.1 -32.4°
Sets 01:25:45 0° 95° (E) 5,701 11.4 -32.4°
